"Pseudo-MPEC" for A10oyI5

Created 2020 Aug 6 6:07:02 UT using Find_Orb

Click here for an explanation of pseudo-MPECs

 
 Astrometry: 
     A10oyI5  C2020 07 28.50525722 54 39.03 +56 23 02.9    ~7SFb 19.36oVNEOCPT08
     A10oyI5  C2020 07 28.50847822 54 39.06 +56 23 03.2    ~7SFb 19.37oVNEOCPT08
     A10oyI5  C2020 07 28.51124422 54 38.87 +56 23 02.2    ~7SFb 19.09oVNEOCPT08
     A10oyI5  C2020 07 28.51769122 54 38.79 +56 23 02.5    ~7SFb 19.40oVNEOCPT08

Station data:
(T08) ATLAS-MLO, Mauna Loa  (N19.536152 W155.576050)  US/Hawaii.  Observers
   L. Denneau, A. Heinze, H. Weiland, J. Tonry, H. Flewelling, A.
   Fitzsimmons, D. Young, B. Stalder. Measurers L. Denneau, A. Heinze, J.
   Tonry. 0.5-m f/2.0 Schmidt + CCD.

Orbital elements:  A10oyI5
   Perihelion 2020 Apr 15.134389 +/- 99.5 TT =  3:13:31 (JD 2458954.634389)
Epoch 2020 Jul 29.0 TT = JDT 2459059.5   Earth MOID: 0.3344   AutoNEOCP
M  42.88022609 +/- 60               (J2000 ecliptic)
n   0.40890646 +/- 0.386            Peri.   46.61172 +/- 100
a   1.79771178 +/- 1.13             Node   203.88220 +/- 31
e   0.3004189 +/- 0.273             Incl.   37.53352 +/- 18
P   2.41/880.38d           H 16.9   G  0.15   U 12.1  SR
q 1.25764510 +/- 0.901    Q 2.33777847 +/- 23.7
From 4 observations 2020 July 28 (17.9 min); mean residual 0".36
Residuals in arcseconds: 
200728 T08  .23-  .02-    200728 T08  .46-  .46-    
200728 T08  .61+  .42+    200728 T08  .06+  .12+    

Ephemerides (geocentric):
Date (UTC) HH   RA              Dec         delta   r     elong  mag " sig PA
---- -- -- --  -------------   -----------  ------ ------ -----  --- ---- ---
2020 08 06 06  22 50 38.412   +55 51 37.83  .93490 1.5388 104.2 19.3  26d 130
2020 08 06 07  22 50 36.799   +55 51 21.52  .93476 1.5390 104.2 19.3  26d 130
2020 08 06 08  22 50 35.182   +55 51 05.14  .93462 1.5392 104.3 19.3  26d 130
2020 08 06 09  22 50 33.561   +55 50 48.69  .93448 1.5393 104.3 19.3  26d 130
2020 08 06 10  22 50 31.936   +55 50 32.16  .93434 1.5395 104.3 19.3  26d 130
2020 08 06 11  22 50 30.306   +55 50 15.56  .93420 1.5397 104.3 19.3  26d 130
2020 08 06 12  22 50 28.673   +55 49 58.88  .93406 1.5398 104.4 19.3  30d 132
2020 08 06 13  22 50 27.036   +55 49 42.13  .93392 1.5400 104.4 19.3  30d 132
2020 08 06 14  22 50 25.395   +55 49 25.30  .93378 1.5402 104.4 19.3  30d 132
2020 08 06 15  22 50 23.749   +55 49 08.40  .93364 1.5403 104.4 19.3  30d 132
2020 08 06 16  22 50 22.100   +55 48 51.42  .93350 1.5405 104.5 19.3  30d 132
2020 08 06 17  22 50 20.447   +55 48 34.37  .93336 1.5407 104.5 19.3  30d 132
2020 08 06 18  22 50 18.789   +55 48 17.25  .93322 1.5408 104.5 19.3  30d 132
2020 08 06 19  22 50 17.128   +55 48 00.05  .93308 1.5410 104.6 19.3  30d 132
2020 08 06 20  22 50 15.463   +55 47 42.77  .93294 1.5411 104.6 19.3  30d 132
2020 08 06 21  22 50 13.793   +55 47 25.42  .93280 1.5413 104.6 19.3  30d 132
2020 08 06 22  22 50 12.120   +55 47 07.99  .93266 1.5415 104.6 19.3  30d 132
2020 08 06 23  22 50 10.443   +55 46 50.49  .93251 1.5416 104.7 19.3  30d 132
2020 08 07 00  22 50 08.761   +55 46 32.91  .93237 1.5418 104.7 19.3  30d 132
2020 08 07 01  22 50 07.076   +55 46 15.26  .93223 1.5420 104.7 19.3  30d 132
2020 08 07 02  22 50 05.387   +55 45 57.53  .93209 1.5421 104.7 19.3  30d 132
2020 08 07 03  22 50 03.694   +55 45 39.72  .93195 1.5423 104.8 19.3  30d 132
2020 08 07 04  22 50 01.997   +55 45 21.84  .93181 1.5425 104.8 19.3  30d 132
2020 08 07 05  22 50 00.296   +55 45 03.89  .93167 1.5426 104.8 19.3  30d 132
2020 08 07 06  22 49 58.591   +55 44 45.86  .93153 1.5428 104.8 19.3  30d 132
2020 08 07 07  22 49 56.883   +55 44 27.75  .93139 1.5430 104.9 19.3  30d 132
2020 08 07 08  22 49 55.170   +55 44 09.57  .93125 1.5431 104.9 19.3  30d 132
2020 08 07 09  22 49 53.453   +55 43 51.31  .93111 1.5433 104.9 19.3  30d 132
2020 08 07 10  22 49 51.733   +55 43 32.97  .93096 1.5435 105.0 19.3  30d 132
2020 08 07 11  22 49 50.009   +55 43 14.56  .93082 1.5436 105.0 19.3  30d 132
2020 08 07 12  22 49 48.280   +55 42 56.07  .93068 1.5438 105.0 19.3  30d 132
2020 08 07 13  22 49 46.548   +55 42 37.51  .93054 1.5440 105.0 19.3  30d 132
2020 08 07 14  22 49 44.812   +55 42 18.87  .93040 1.5441 105.1 19.3  30d 131
2020 08 07 15  22 49 43.072   +55 42 00.15  .93026 1.5443 105.1 19.3  30d 131
2020 08 07 16  22 49 41.329   +55 41 41.36  .93012 1.5444 105.1 19.3  30d 131
2020 08 07 17  22 49 39.581   +55 41 22.49  .92998 1.5446 105.1 19.3  30d 131
2020 08 07 18  22 49 37.830   +55 41 03.54  .92984 1.5448 105.2 19.3  30d 130
2020 08 07 19  22 49 36.074   +55 40 44.52  .92969 1.5449 105.2 19.3  30d 130
2020 08 07 20  22 49 34.315   +55 40 25.42  .92955 1.5451 105.2 19.3  30d 130
2020 08 07 21  22 49 32.553   +55 40 06.24  .92941 1.5453 105.3 19.3  30d 130
2020 08 07 22  22 49 30.786   +55 39 46.99  .92927 1.5454 105.3 19.3  30d 130
2020 08 07 23  22 49 29.015   +55 39 27.65  .92913 1.5456 105.3 19.3  30d 129
2020 08 08 00  22 49 27.241   +55 39 08.25  .92899 1.5458 105.3 19.3  30d 129
2020 08 08 01  22 49 25.463   +55 38 48.76  .92885 1.5459 105.4 19.3  30d 129
2020 08 08 02  22 49 23.681   +55 38 29.20  .92871 1.5461 105.4 19.3  30d 129
2020 08 08 03  22 49 21.895   +55 38 09.56  .92856 1.5463 105.4 19.3  30d 129
2020 08 08 04  22 49 20.106   +55 37 49.84  .92842 1.5464 105.4 19.3  30d 128
2020 08 08 05  22 49 18.313   +55 37 30.05  .92828 1.5466 105.5 19.3  30d 127